Regional Weather Roundup
Issued by NWS

Home | Current Version | Previous Version | Text Only | Print | Product List | Glossary Off
Versions: 1 2 3 4 5 6 7 8 9 10 11 12 13 14 15 16 17 18 19 20 21 22 23 24 25 26 27 28 29 30 31 32 33 34 35 36 37 38 39 40 41 42 43 44 45 46 47 48 49 50

000
ASUS45 KPSR 280100
RWRAZ

ARIZONA REGIONAL HOURLY WEATHER ROUNDUP
NATIONAL WEATHER SERVICE PHOENIX AZ
600 PM MST MON APR 27 2015

NOTE: FAIR INDICATES FEW OR NO CLOUDS BELOW 12,000 FEET WITH NO
SIGNIFICANT WEATHER AND/OR OBSTRUCTIONS TO VISIBILITY.

AZZ001>003-036-280200-
NORTHWEST ARIZONA

CITY           SKY/WX    TMP DP  RH WIND       PRES   REMARKS
KINGMAN        SUNNY     75  27  17 N17       29.97F
$$

AZZ004>008-015-016-018-280200-
NORTH CENTRAL ARIZONA

CITY           SKY/WX    TMP DP  RH WIND       PRES   REMARKS
GRAND CANYON   SUNNY     59  29  31 NE8       30.13S
WILLIAMS       SUNNY     57  32  38 NE9       30.18R
PRESCOTT       PTSUNNY   68  31  25 VRB5      30.02R
FLAGSTAFF      NOT AVBL
PAYSON         MOSUNNY   68  34  28 E5        30.04R
$$

AZZ009>014-017-280200-
NORTHEAST ARIZONA

CITY           SKY/WX    TMP DP  RH WIND       PRES   REMARKS
WINSLOW        NOT AVBL
SAINT JOHNS    MOSUNNY   63  29  27 NW5       30.04R
WINDOW ROCK    PTSUNNY   60  30  32 E5        30.10R
SHOW LOW       CLOUDY    57  28  33 NE3       30.10R
$$

AZZ023-280200-
GREATER PHOENIX AREA

CITY           SKY/WX    TMP DP  RH WIND       PRES   REMARKS
PHOENIX        MOSUNNY   85  36  17 SW7       29.81F
GLENDALE       MOSUNNY   86  37  17 S10       29.83F
LUKE AFB       SUNNY     85  38  19 SW8       29.81S
DEER VALLEY    SUNNY     82  35  18 S5        29.83S
SCOTTSDALE     SUNNY     83  36  18 CALM      29.85S
MESA-GATEWAY   MOSUNNY   82  39  21 W8        29.85F
CHANDLER       MOSUNNY   84  37  18 S6        29.83F
$$

AZZ027-028-280200-
SOUTHWEST MARICOPA COUNTY AND PINAL COUNTY

CITY           SKY/WX    TMP DP  RH WIND       PRES   REMARKS
CASA GRANDE    SUNNY     81  37  21 CALM      29.84S
$$

AZZ503-504-507>509-280200-
SOUTHEAST ARIZONA

CITY           SKY/WX    TMP DP  RH WIND       PRES   REMARKS
TUCSON         MOSUNNY   79  34  19 CALM      29.90S
RYAN FIELD       N/A     81  39  22 NW10G18   29.90R
NOGALES        SUNNY     75  32  20 NE13G18   29.93R
SIERRA VISTA   SUNNY     69  28  21 VRB6      29.99S
SAFFORD        SUNNY     75  36  24 SW6       29.90S
$$

AZZ020-021-025-026-031-280200-
SOUTHWEST ARIZONA

CITY           SKY/WX    TMP DP  RH WIND       PRES   REMARKS
YUMA           SUNNY     89  24   9 NW10      29.83S
$$

CAZ031-033-041-043-047-048-061-280200-
SOUTHERN CALIFORNIA

CITY           SKY/WX    TMP DP  RH WIND       PRES   REMARKS
DOWNTOWN L.A.  SUNNY     77  36  22 VRB6      29.89R
L.A. AIRPORT   SUNNY     70  46  42 W16       29.90S
SAN DIEGO      SUNNY     75  44  33 W13       29.89R
BURBANK        SUNNY     79  33  19 S8        29.89S
ONTARIO        SUNNY     82  32  16 W16       29.88S
RIVERSIDE      SUNNY     85  28  12 W8G17     29.87S
PALM SPRINGS   SUNNY     90  10   5 VRB6      29.87F
EL CENTRO NAS  SUNNY     88  18   7 NW7       29.85F
IMPERIAL       SUNNY     87  27  11 NW7       29.82F
BLYTHE         SUNNY     88  23   9 N9        29.83S
$$

NVZ020-UTZ003-280200-
SOUTHERN NEVADA-UTAH

CITY           SKY/WX    TMP DP  RH WIND       PRES   REMARKS
LAS VEGAS      NOT AVBL
SALT LAKE CITY SUNNY     59  37  44 W13       30.18S
$$

NMZ009-TXZ055-280200-
NEW MEXICO-WEST TEXAS

CITY           SKY/WX    TMP DP  RH WIND       PRES   REMARKS
ALBUQUERQUE    CLOUDY    57  36  45 SE17      30.08R
EL PASO        MOCLDY    61  29  29 E16       30.02R
$$


........................KEY........................
SKY/WX - SKY CONDITION/WEATHER
TMP    - TEMPERATURE IN FAHRENHEIT
DP     - DEW POINT IN FAHRENHEIT
RH     - RELATIVE HUMIDITY IN PERCENT
WIND   - DIRECTION AND SPEED IN MILES PER HOUR (MPH)
VRB    - VARIABLE WIND DIRECTION
PRES   - MEAN SEA LEVEL PRESSURE IN INCHES OF MERCURY
         F - FALLING PRESSURE   R - RISING PRESSURE
         S - STEADY PRESSURE
VSB    - VISIBILITY IN MILES
HX     - HEAT INDEX IN FAHRENHEIT
WCI    - WIND CHILL INDEX IN FAHRENHEIT
TC     - TEMPERATURE IN CELSIUS WHICH IS ALSO KNOWN AS
         TEMPERATURE IN CENTIGRADE
AFB    - AIR FORCE BASE
         LUKE AFB IS LUKE AIR FORCE BASE
         DAVIS-MONTHAN IS DAVIS-MONTHAN AIR FORCE BASE
NAS    - NAVAL AIR STATION
         EL CENTRO NAS IS EL CENTRO NAVAL AIR STATION
N/A    - NOT AVAILABLE




USA.gov is the U.S. government's official web portal to all federal, state and local government web resources and services.